Theta_e
314 312 311 312 312 308 307 303 298 298 297 296 297 296 296 295 295 296 300 310 314 316 317 319 321 322 322 324 324 321 319 320 320 320 319 319 320 321 320 320 321 322 324
313 311 310 310 310 307 304 300 298 296 296 296 295 296 295 295 295 296 300 305 315 318 317 320 322 324 323 323 323 319 315 318 316 315 316 317 319 317 316 317 318 320 320
312 310 308 308 308 305 302 298 297 296 295 296 294 294 294 294 295 296 298 304 307 312 318 317 319 323 320 318 322 319 313 317 314 315 316 317 314 314 315 316 317 317 318
312 308 307 306 306 302 298 296 294 294 293 293 292 292 292 294 294 295 297 302 306 304 306 312 317 319 317 313 321 317 314 315 312 313 314 311 312 313 312 312 313 314 315
311 307 305 305 303 298 295 295 293 293 292 291 292 291 292 292 293 295 295 300 300 301 298 304 305 306 313 317 315 314 313 312 311 311 310 309 309 309 310 311 312 312 313
310 305 303 303 300 296 294 294 292 293 292 292 292 292 290 292 291 291 294 298 296 294 295 295 295 298 305 307 310 312 312 310 309 308 307 306 307 307 308 308 309 310 311
309 305 301 300 298 296 295 294 293 292 291 291 289 288 289 290 290 291 292 292 292 292 291 292 292 294 298 306 309 311 312 310 307 305 304 304 304 305 306 306 307 308 309
307 305 301 299 296 294 293 294 292 291 291 291 288 287 284 286 288 290 290 291 290 290 290 291 290 291 295 297 302 310 310 307 305 303 302 301 302 303 304 305 305 306 307
306 304 301 298 296 294 294 293 293 292 288 289 291 289 285 284 284 287 288 289 289 288 288 289 290 291 292 296 299 301 303 302 301 300 300 299 300 301 302 303 303 304 305
305 303 301 299 296 294 293 292 293 293 290 289 288 291 289 289 285 281 285 287 287 288 287 287 287 289 291 294 294 294 296 296 297 297 297 297 298 298 300 301 301 302 303
301 302 301 298 297 295 292 292 291 290 291 289 290 286 286 286 287 284 280 282 285 286 287 287 287 287 290 290 288 292 294 295 294 294 294 295 296 296 298 299 299 300 301
297 298 299 298 297 295 292 291 291 290 290 290 290 287 287 286 285 285 284 281 282 284 286 287 287 287 288 290 290 293 292 293 293 293 293 293 293 294 295 296 297 298 299
294 295 295 295 295 295 293 292 290 289 290 290 289 290 288 288 288 287 286 283 282 283 283 285 285 287 289 288 290 290 291 291 292 293 293 293 293 293 294 295 296 296 297
292 293 294 294 294 294 293 291 289 289 289 291 288 288 288 289 289 287 286 284 281 280 281 282 285 287 287 288 287 290 286 290 291 292 293 293 293 293 293 294 295 295 295
292 291 291 291 292 292 292 291 288 288 288 288 290 289 289 288 288 288 287 286 286 279 280 281 281 286 287 288 288 287 283 289 290 291 292 292 292 293 293 293 294 294 295
289 288 288 288 289 290 290 289 288 287 287 287 288 287 288 287 287 287 288 286 286 287 282 282 282 283 287 288 288 284 282 287 289 290 291 291 291 292 292 293 293 293 293
286 287 287 286 287 287 287 287 287 287 286 286 286 285 287 286 289 287 286 286 286 285 284 280 281 282 285 285 285 283 283 282 284 288 290 290 290 291 291 292 292 291 292
284 285 286 285 285 286 285 286 286 287 285 285 285 285 285 287 286 285 286 287 288 285 284 278 279 280 282 284 283 282 281 281 280 285 289 289 290 290 290 291 291 290 290
282 282 283 283 283 284 284 285 285 285 285 285 285 285 286 284 286 286 285 286 286 285 285 279 278 279 279 283 279 279 279 278 280 284 288 289 289 290 290 291 290 289 289
280 280 281 282 282 283 283 284 284 285 285 285 285 286 286 285 285 285 285 285 285 284 286 281 277 278 278 281 281 278 278 280 279 280 284 285 287 288 290 290 289 288 288
280 279 280 280 281 281 283 283 283 284 283 284 284 285 285 285 287 287 285 285 285 285 284 285 281 276 277 279 279 279 278 279 279 279 278 279 281 281 283 288 286 287 287
278 278 278 279 279 280 284 286 286 283 284 284 283 284 284 285 285 289 290 290 288 285 285 284 284 280 279 279 280 279 279 278 275 280 279 278 280 279 281 282 285 287 286
276 277 277 277 277 279 283 284 286 283 283 283 284 284 284 284 284 284 287 290 290 291 290 286 285 284 281 280 280 279 279 280 280 279 280 278 279 279 281 282 286 286 286
275 275 275 276 276 277 282 283 284 282 282 282 283 283 283 284 284 284 284 283 284 286 287 287 286 286 286 282 282 281 281 282 278 279 281 275 280 279 280 280 285 286 286
275 274 275 274 274 275 279 280 281 279 280 281 282 283 283 283 285 287 284 282 282 283 287 290 290 290 290 289 284 282 279 278 272 276 279 277 276 277 278 278 280 286 286
274 274 273 273 273 272 276 278 278 277 277 279 280 282 284 283 286 287 285 284 281 282 283 283 285 288 289 288 286 283 282 278 279 274 278 275 275 276 274 278 278 279 281
Wind_Speed
5 5 5 5 5 5 5 5 5 4 3 4 4 5 4 4 2 2 2 4 5 3 3 5 6 6 7 8 10 11 7 8 9 9 10 9 9 11 10 10 8 8 8
5 5 5 5 5 5 5 5 5 5 4 3 3 3 4 4 4 3 3 3 8 8 3 6 8 9 9 9 11 10 5 7 8 7 7 8 10 9 8 8 9 9 9
7 7 5 5 5 5 7 5 5 5 4 3 4 3 3 2 2 2 2 4 5 13 13 2 4 8 11 6 10 10 4 9 6 6 8 10 9 7 8 9 10 10 10
8 7 5 5 6 5 5 4 4 3 4 4 3 3 2 1 2 1 1 0 3 4 8 11 10 10 10 4 9 9 4 8 5 6 8 7 7 7 7 7 8 9 10
8 7 6 5 6 6 5 6 4 5 3 4 4 4 3 3 2 1 2 1 4 5 3 6 9 9 6 7 7 8 6 6 5 8 7 6 5 5 6 7 7 8 8
7 6 5 7 6 6 5 5 6 4 4 5 4 4 2 2 2 2 2 2 1 3 4 4 2 3 3 3 5 7 8 6 6 5 4 4 4 4 5 5 6 7 7
6 6 4 5 7 10 11 9 5 7 3 5 5 2 1 2 3 3 3 3 2 2 2 2 2 2 2 6 8 9 10 8 6 4 3 2 3 3 4 5 5 6 7
7 5 5 4 5 3 6 9 7 5 4 8 5 4 3 3 4 5 5 5 7 4 4 4 3 3 3 2 4 10 9 8 6 5 3 2 2 2 3 4 4 5 5
5 6 7 6 6 5 7 7 8 10 5 6 7 7 4 6 2 2 5 5 6 4 5 6 6 6 5 3 6 8 10 9 7 5 4 2 1 1 2 2 3 4 4
3 5 6 6 6 5 6 6 6 8 6 8 1 7 1 5 6 3 3 4 5 6 6 4 5 5 6 5 11 11 11 9 8 8 7 5 3 1 0 1 1 2 4
2 3 4 6 6 5 5 7 6 7 6 6 8 3 1 2 1 4 4 4 4 5 6 8 7 6 6 5 5 10 14 12 10 9 8 6 5 4 3 1 1 1 2
2 4 5 5 6 6 7 6 7 8 7 6 6 5 5 6 5 4 3 3 4 5 6 7 8 8 7 7 11 16 15 13 13 12 10 8 6 4 3 2 1 2 3
2 4 6 6 4 5 5 6 7 7 9 8 8 10 5 6 4 4 4 3 3 3 4 4 5 7 8 6 7 15 17 17 15 14 13 11 9 8 7 5 4 3 1
5 6 6 6 7 7 6 6 4 5 7 9 9 7 6 7 5 4 6 6 1 2 2 4 4 8 8 8 10 19 10 16 15 15 15 12 11 9 8 7 6 4 3
9 9 8 7 6 6 7 6 5 6 7 7 11 9 8 5 5 6 4 5 7 6 9 6 5 9 8 9 11 11 11 17 17 16 15 13 13 12 10 8 7 6 5
9 9 8 8 8 7 6 6 5 6 7 6 6 8 9 5 7 5 6 5 4 8 7 6 7 6 11 9 11 11 10 15 20 19 17 14 14 12 10 9 8 6 6
7 8 9 8 8 7 7 7 7 7 8 8 7 8 11 8 10 7 6 6 6 4 5 3 3 5 11 12 10 9 10 8 8 17 17 16 15 13 12 11 9 8 7
8 6 6 6 7 8 7 7 8 7 8 9 8 9 11 8 12 7 8 13 13 8 6 6 4 4 7 14 12 12 8 8 9 15 18 18 17 16 14 14 11 10 8
6 7 8 8 8 6 7 8 7 8 8 9 10 10 12 9 13 10 9 12 11 9 8 5 5 3 2 9 7 7 8 4 5 13 18 19 19 19 18 16 14 12 11
7 7 8 7 7 8 9 8 8 10 10 11 11 12 12 12 14 13 12 13 11 10 12 6 4 5 4 7 9 10 8 8 9 8 13 12 15 19 19 19 17 14 12
6 6 8 9 8 7 7 8 9 9 10 11 11 12 13 13 17 16 11 13 12 12 11 13 8 4 7 8 16 9 10 8 7 6 7 6 7 6 9 17 11 15 16
7 7 10 9 11 9 16 20 17 10 11 12 13 13 12 14 14 22 24 27 18 16 17 14 13 14 15 12 13 11 10 7 7 9 9 8 9 8 7 7 15 17 16
8 11 11 10 13 13 21 25 23 12 12 13 14 13 13 11 13 13 20 27 28 28 29 17 17 19 15 17 17 16 16 13 10 6 12 8 8 9 7 8 17 18 17
12 12 13 13 14 15 26 26 26 16 14 15 15 15 16 16 15 15 13 15 19 19 22 18 19 19 14 14 19 19 20 15 4 5 9 6 8 7 6 6 18 19 18
15 16 15 17 16 17 27 29 26 16 16 18 15 16 15 17 21 25 17 16 16 18 20 30 30 26 23 23 22 11 12 13 4 5 10 5 4 5 6 5 6 20 18
16 15 19 18 21 21 31 34 29 14 17 15 17 17 23 20 26 27 18 16 17 20 15 14 15 21 19 16 30 21 15 16 13 6 8 7 6 6 3 3 6 6 7
Wind_Direction
162 155 162 163 161 158 164 160 163 158 160 157 152 143 128 109 93 86 111 73 6 324 160 166 152 144 153 149 110 94 91 92 80 79 79 74 74 77 72 65 66 77 70
153 163 180 175 167 158 159 151 158 168 173 157 156 142 141 137 128 142 145 106 52 28 189 164 165 141 114 116 121 108 91 102 73 65 84 90 85 68 59 64 66 64 72
163 167 171 168 165 154 150 149 160 158 152 162 162 151 141 132 132 131 153 154 99 56 43 88 179 149 125 158 128 114 107 98 81 76 87 72 65 66 59 58 63 63 63
163 168 170 174 162 148 145 144 156 156 164 163 155 171 127 86 73 96 315 22 130 98 71 60 67 107 124 153 144 116 137 101 100 92 77 74 71 67 59 59 55 53 50
173 161 170 174 159 151 151 157 167 158 164 173 165 158 153 152 170 192 248 345 66 105 100 74 69 56 75 123 114 120 143 117 126 96 92 76 65 70 58 54 53 52 51
180 166 172 171 157 150 162 169 165 176 161 165 136 118 135 163 163 196 194 124 76 82 122 139 119 64 73 145 165 154 146 145 111 97 88 87 74 58 54 50 47 41 43
180 180 179 176 169 173 178 175 161 170 174 150 101 56 355 180 183 206 177 165 164 192 159 146 146 139 157 177 184 181 168 150 144 125 111 85 73 56 42 40 40 36 40
170 177 177 186 181 174 187 182 164 159 162 170 147 124 186 309 263 215 183 181 181 182 188 193 198 185 201 219 225 188 167 161 158 148 147 129 85 55 44 47 38 33 36
171 178 189 185 179 177 191 196 188 177 166 203 186 147 141 215 140 238 222 201 184 183 186 188 186 191 201 165 118 124 146 160 162 168 175 161 158 123 73 56 41 30 27
192 194 200 205 189 187 193 196 199 197 160 187 250 241 250 152 165 184 241 216 206 191 192 195 186 202 201 166 151 147 158 171 178 181 177 183 180 182 91 67 47 34 26
257 267 239 213 217 199 210 196 195 203 207 179 199 141 128 258 289 131 185 214 214 201 194 177 178 194 205 157 155 161 165 176 187 191 192 187 190 193 198 202 244 348 28
207 235 266 261 240 220 202 206 209 202 204 212 202 207 178 169 195 172 140 175 201 240 189 188 186 186 193 175 175 171 173 186 193 195 195 194 196 201 218 234 271 320 346
311 231 220 234 235 243 239 217 212 206 211 217 201 218 210 207 170 173 128 175 160 223 198 211 189 186 191 187 181 171 181 189 198 199 198 196 196 199 204 214 220 224 269
336 348 309 250 228 231 242 231 226 223 224 226 221 212 211 220 197 182 179 144 123 193 203 212 197 190 188 187 175 169 180 196 206 205 202 202 201 207 215 222 225 241 267
344 342 326 317 291 247 231 241 232 234 233 229 232 230 222 214 213 207 191 171 176 172 214 222 178 200 188 185 186 180 174 192 206 212 209 208 205 207 213 224 231 250 261
349 338 339 335 327 306 263 244 242 236 232 235 233 235 233 221 219 210 209 199 191 204 227 182 197 175 185 189 188 178 183 191 204 206 208 209 212 214 219 222 235 248 261
336 340 339 333 322 315 296 267 250 241 238 234 233 233 239 227 231 221 208 200 206 170 188 244 164 178 175 181 174 182 184 176 192 213 213 204 207 213 221 223 232 241 249
335 319 321 318 317 310 303 290 279 265 242 244 236 234 240 235 238 218 212 221 219 203 166 168 182 157 191 188 175 184 185 187 178 209 220 214 207 208 214 218 222 229 242
298 313 324 328 323 301 294 292 280 272 259 249 244 239 240 222 237 235 222 222 221 212 200 148 178 172 152 179 163 175 189 192 191 196 209 219 217 212 212 213 216 222 225
302 308 312 302 294 300 299 289 280 275 270 264 256 251 249 230 233 231 229 226 222 217 216 197 180 163 160 173 181 176 189 203 208 198 207 207 221 224 220 214 209 212 226
286 293 294 292 291 287 278 283 282 284 280 277 264 258 257 249 238 225 226 231 217 213 218 218 205 162 176 162 191 184 196 194 216 204 191 194 197 212 227 223 216 209 216
280 282 287 278 284 279 283 290 288 275 267 267 267 261 255 257 253 248 240 235 218 215 219 218 220 211 199 192 185 181 180 184 208 198 195 201 186 206 212 210 213 212 207
290 287 280 274 277 274 281 286 284 276 265 259 259 265 265 253 252 255 253 248 241 227 224 221 226 221 202 191 177 183 193 200 207 177 185 192 174 203 194 203 208 209 203
289 286 284 282 281 279 280 281 281 275 270 264 256 251 250 256 247 240 241 248 251 245 235 227 226 232 222 193 196 190 188 190 66 157 172 170 170 192 179 191 212 210 210
285 287 284 287 283 280 282 283 282 277 267 264 259 254 249 251 249 246 239 235 233 240 249 243 236 234 228 198 190 176 187 170 180 199 189 138 155 143 178 186 202 207 206
285 285 283 281 283 283 284 284 283 276 269 263 259 256 247 246 250 246 243 234 235 236 228 240 251 240 228 217 193 196 180 191 188 181 190 148 146 141 169 193 195 209 210